Location: NCO
(38.4404°N, 77.1340°W)
Time: 04:34:29
(UTC-05:00)

Amateur Radio Satellites - All Passes

Search period start: 19 January 2018 04:04
Search period end: 20 January 2018 04:04
Location: NCO, 38.4404°N, 77.1340°W

Satellite Date Start Highest point End Downlink Frequencies (MHz)
Time Altitude Azimuth
KKS-1 19 Jan 04:07:43 04:11:37 31° 70° (ENE) 04:15:32 437.445
FALCONSAT 3 19 Jan 04:18:09 04:20:43 18° 156° (SSE) 04:23:18 435.103
STARS 19 Jan 04:30:37 04:33:54 21° 67° (ENE) 04:37:13 437.465
ITAMSAT 1 19 Jan 04:39:54 04:44:51 46° 289° (WNW) 04:49:47 435.822/435.867
nSIGHT-1 19 Jan 05:14:51 05:16:34 14° 231° (SW) 05:18:18 .
ISS 19 Jan 05:18:40 05:21:08 20° 229° (SW) 05:23:35 437.550
AO-7 19 Jan 05:24:37 05:31:31 30° 302° (WNW) 05:38:23 .
M-CUBED/EXP-1 PRIME 19 Jan 05:25:25 05:28:43 54° 290° (WNW) 05:31:54 437.505
XW-2F 19 Jan 05:31:40 05:34:31 20° 95° (E) 05:37:19 145.980 - 146.000
SO-50 19 Jan 05:32:38 05:36:55 52° 117° (ESE) 05:41:19 436.795
KAITUO 1B 19 Jan 05:34:08 05:36:29 16° 94° (E) 05:38:50 145.475/437.950
DOVE 4 19 Jan 05:36:27 05:40:26 37° 288° (WNW) 05:44:37 437.250
XW-2D 19 Jan 05:39:06 05:42:25 29° 97° (E) 05:45:41 145.860 - 145.880
KKS-1 19 Jan 05:44:48 05:48:10 21° 265° (W) 05:51:34 437.445
HO-68 19 Jan 05:47:48 05:52:21 18° 91° (E) 05:56:55 435.675
NUDT-PHONESAT 19 Jan 05:48:34 05:51:32 23° 96° (E) 05:54:29 437.300
FALCONSAT 3 19 Jan 05:55:51 05:59:21 44° 170° (S) 06:02:52 435.103
XW-2B 19 Jan 05:56:22 06:00:00 46° 99° (E) 06:03:36 145.730 - 145.750
CUTE-I 19 Jan 05:57:40 06:02:37 38° 98° (E) 06:07:33 437.470
FO-29 19 Jan 06:02:16 06:06:33 18° 63° (ENE) 06:10:33 435.910
STRAND 1 19 Jan 06:02:20 06:06:43 30° 68° (ENE) 06:11:06 437.568
CUBEBUG 2 19 Jan 06:05:04 06:06:39 11° 90° (E) 06:08:13 437.445
STARS 19 Jan 06:06:10 06:10:01 31° 262° (W) 06:13:55 437.465
CUTE 1.7 + AOD 2 19 Jan 06:13:22 06:16:29 20° 94° (E) 06:19:34 437.475
LilacSat-2 19 Jan 06:21:31 06:25:17 70° 285° (WNW) 06:29:01 437.200
XW-2C 19 Jan 06:26:29 06:30:13 65° 284° (WNW) 06:33:55 145.795 - 145.815
RS-15 19 Jan 06:49:05 06:58:31 27° 102° (ESE) 07:07:52 29.354- 29.394
XW-2F 19 Jan 07:05:33 07:08:32 23° 290° (WNW) 07:11:28 145.980 - 146.000
KAITUO 1B 19 Jan 07:07:17 07:10:28 28° 288° (WNW) 07:13:37 145.475/437.950
XW-2D 19 Jan 07:13:52 07:16:19 17° 292° (WNW) 07:18:45 145.860 - 145.880
SO-50 19 Jan 07:14:33 07:17:41 18° 315° (NW) 07:20:52 436.795
NUDT-PHONESAT 19 Jan 07:22:31 07:25:13 20° 291° (WNW) 07:27:53 437.300
Oscar 11 19 Jan 07:26:46 07:28:26 12° 91° (E) 07:30:07 .
AAUSAT CUBESAT 2 19 Jan 07:27:54 07:31:39 34° 97° (E) 07:35:23 437.432
XW-2B 19 Jan 07:32:36 07:33:42 11° 294° (WNW) 07:34:48 145.730 - 145.750
HO-68 19 Jan 07:33:34 07:40:43 77° 288° (WNW) 07:47:52 435.675
FALCONSAT 3 19 Jan 07:34:39 07:38:12 50° 186° (S) 07:41:46 435.103
CUTE-I 19 Jan 07:38:07 07:42:26 26° 294° (WNW) 07:46:44 437.470
CUBEBUG 2 19 Jan 07:38:55 07:43:39 67° 284° (WNW) 07:48:21 437.445
SEEDS 19 Jan 07:39:44 07:43:52 65° 284° (WNW) 07:47:57 437.485
STRAND 1 19 Jan 07:41:24 07:45:49 30° 264° (W) 07:50:15 437.568
FO-29 19 Jan 07:43:58 07:51:06 76° 257° (WSW) 07:57:23 435.910
UWE-3 19 Jan 07:48:35 07:53:17 87° 102° (ESE) 07:57:55 435.000/436.395/437.385
CUTE 1.7 + AOD 2 19 Jan 07:48:38 07:52:19 30° 289° (WNW) 07:55:58 437.475
UNISAT 6 19 Jan 07:49:21 07:51:08 12° 63° (ENE) 07:52:55 437.425
XW-2A 19 Jan 08:13:38 08:16:58 65° 284° (WNW) 08:20:16 145.665 - 145.685
ZACube-1 19 Jan 08:16:55 08:21:31 89° 282° (WNW) 08:26:01 437.345
AO-73 19 Jan 08:24:59 08:29:33 84° 286° (WNW) 08:34:01 145.935
YUBILEINY 19 Jan 08:43:33 08:48:49 17° 63° (ENE) 08:54:02 435.215
PCSat 19 Jan 08:51:43 08:54:41 15° 104° (ESE) 08:57:40 145.827
RS-15 19 Jan 08:57:19 09:09:41 82° 301° (WNW) 09:21:57 29.354- 29.394
Oscar 11 19 Jan 09:00:39 09:04:52 53° 286° (WNW) 09:09:03 .
AAUSAT CUBESAT 2 19 Jan 09:04:06 09:06:48 17° 292° (WNW) 09:09:32 437.432
TIGRISAT 19 Jan 09:08:04 09:12:27 82° 76° (ENE) 09:16:58 435.000
FALCONSAT 3 19 Jan 09:13:52 09:16:57 25° 200° (SSW) 09:20:01 435.103
UNISAT 6 19 Jan 09:22:54 09:27:14 61° 260° (W) 09:31:42 437.425
HO-68 19 Jan 09:23:52 09:27:16 14° 306° (NW) 09:30:40 435.675
Max Valier Satellite 19 Jan 09:27:28 09:30:49 32° 97° (E) 09:34:07 145.860
BEESAT 3 19 Jan 09:32:17 09:35:57 36° 115° (ESE) 09:39:38 437.485
FO-29 19 Jan 09:36:03 09:36:43 10° 270° (W) 09:37:23 435.910
O/OREOS (USA 219) 19 Jan 09:47:00 09:50:16 19° 58° (ENE) 09:53:31 437.305
EO-88 19 Jan 09:50:48 09:54:14 40° 99° (E) 09:57:39 145.990 - 145.960
DELFI C3 19 Jan 09:57:55 10:01:47 61° 285° (WNW) 10:05:39 145.870
AIST 2D 19 Jan 10:06:28 10:09:39 32° 73° (ENE) 10:12:49 435.315
PRISM 19 Jan 10:10:28 10:14:32 80° 259° (W) 10:18:36 437.425
POLYITAN 1 19 Jan 10:10:56 10:12:50 13° 64° (ENE) 10:14:44 437.675
BEESAT 2 19 Jan 10:15:48 10:19:12 27° 113° (ESE) 10:22:39 435.950
NANOSAT C BR1 19 Jan 10:27:26 10:30:11 17° 67° (ENE) 10:32:57 145.865
PCSat 19 Jan 10:32:05 10:37:27 67° 299° (WNW) 10:42:52 145.827
YUBILEINY 19 Jan 10:38:08 10:46:54 88° 83° (E) 10:55:36 435.215
QB50P2 19 Jan 10:38:26 10:42:05 29° 70° (ENE) 10:45:45 145.880/145.840
ESTCUBE 1 19 Jan 10:57:27 11:01:14 26° 96° (E) 11:04:59 437.505/2401.250
Max Valier Satellite 19 Jan 11:02:12 11:04:19 15° 292° (WNW) 11:06:26 145.860
EO-79 19 Jan 11:09:28 11:13:36 59° 75° (ENE) 11:17:47 145.935-145.965
BEESAT 3 19 Jan 11:10:38 11:13:34 19° 312° (NW) 11:16:32 437.485
DUCHIFAT 1 19 Jan 11:10:48 11:14:46 45° 73° (ENE) 11:18:48 145.980
RS-15 19 Jan 11:14:09 11:24:19 29° 327° (NNW) 11:34:20 29.354- 29.394
LO-87 19 Jan 11:15:57 11:19:32 58° 100° (E) 11:23:07 145.935 - 145.965
O/OREOS (USA 219) 19 Jan 11:25:40 11:29:48 38° 255° (WSW) 11:33:55 437.305
EO-88 19 Jan 11:26:11 11:27:27 12° 294° (WNW) 11:28:43 145.990 - 145.960
Oscar 19 19 Jan 11:37:44 11:40:51 16° 63° (ENE) 11:43:59 437.125/150
AIST 2D 19 Jan 11:41:17 11:42:53 13° 267° (W) 11:44:29 435.315
POLYITAN 1 19 Jan 11:43:59 11:48:06 53° 260° (W) 11:52:17 437.675
BEESAT 2 19 Jan 11:53:31 11:56:52 25° 309° (NW) 12:00:14 435.950
NANOSAT C BR1 19 Jan 12:01:40 12:05:34 37° 262° (W) 12:09:30 145.865
QB50P2 19 Jan 12:14:36 12:17:50 21° 265° (W) 12:21:06 145.880/145.840
AO-85 19 Jan 12:18:52 12:22:46 81° 119° (ESE) 12:26:58 145.980
BUGSAT 1 19 Jan 12:19:18 12:23:17 60° 74° (ENE) 12:27:21 437.445
PCSat 19 Jan 12:20:14 12:21:54 11° 319° (NW) 12:23:33 145.827
JUGNU 19 Jan 12:24:21 12:26:19 12° 178° (S) 12:28:17 437.505
ESTCUBE 1 19 Jan 12:34:12 12:37:56 26° 291° (WNW) 12:41:39 437.505/2401.250
YUBILEINY 19 Jan 12:37:27 12:42:25 17° 282° (WNW) 12:47:22 435.215
AO-7 19 Jan 12:40:18 12:44:55 16° 50° (NE) 12:49:32 .
VELOX 1 19 Jan 12:41:05 12:45:18 44° 99° (E) 12:49:30 145.980
Gurwin Techsat 1B 19 Jan 12:46:13 12:51:21 54° 72° (ENE) 12:56:32 435.225
DUCHIFAT 1 19 Jan 12:48:33 12:50:39 13° 268° (W) 12:52:45 145.980
EO-79 19 Jan 12:49:13 12:49:42 10° 270° (W) 12:50:11 145.935-145.965
SPROUT 19 Jan 12:51:56 12:56:14 68° 284° (WNW) 13:00:29 437.525
AO-91 19 Jan 12:57:03 13:00:25 79° 260° (W) 13:03:50 145.960
DX 1 19 Jan 13:04:20 13:06:41 14° 93° (E) 13:09:01 434.975-435.025
Oscar 19 19 Jan 13:14:29 13:19:37 61° 259° (WSW) 13:24:47 437.125/150
50 SAT 19 Jan 13:29:14 13:31:37 20° 96° (E) 13:34:00 437.505
RS-15 19 Jan 13:35:12 13:42:42 18° 3° (N) 13:50:01 29.354- 29.394
AO-85 19 Jan 14:02:22 14:03:50 12° 320° (NW) 14:05:19 145.980
SO-50 19 Jan 14:05:03 14:09:18 33° 51° (NE) 14:13:37 436.795
ITAMSAT 1 19 Jan 14:17:51 14:22:09 27° 67° (ENE) 14:26:27 435.822/435.867
VELOX 1 19 Jan 14:18:41 14:21:20 16° 295° (WNW) 14:24:00 145.980
MOZHAYETS 4 19 Jan 14:19:28 14:22:33 17° 93° (E) 14:25:36
AO-7 19 Jan 14:27:58 14:36:15 74° 69° (ENE) 14:44:37 .
Gurwin Techsat 1B 19 Jan 14:28:08 14:31:35 17° 268° (W) 14:35:04 435.225
SRMSAT 19 Jan 14:30:07 14:31:41 11° 173° (S) 14:33:15 437.500
UKube-1 19 Jan 14:30:34 14:34:53 84° 103° (ESE) 14:39:12 .
M-CUBED/EXP-1 PRIME 19 Jan 14:37:03 14:38:42 12° 61° (ENE) 14:40:21 437.505
DX 1 19 Jan 14:38:56 14:43:04 45° 288° (WNW) 14:47:12 434.975-435.025
50 SAT 19 Jan 15:01:14 15:03:09 15° 291° (WNW) 15:05:04 437.505
DOVE 4 19 Jan 15:04:45 15:07:10 15° 67° (ENE) 15:09:33 437.250
ITUPSAT 1 19 Jan 15:08:48 15:13:07 32° 97° (E) 15:17:23 437.325
SO-50 19 Jan 15:45:39 15:49:40 28° 247° (WSW) 15:53:43 436.795
BEESAT 19 Jan 15:49:16 15:54:05 88° 97° (E) 15:58:53 436.000
RS-15 19 Jan 15:50:01 16:00:28 34° 38° (NE) 16:10:23 29.354- 29.394
CUBESAT XI-V 19 Jan 15:54:02 15:58:28 43° 99° (E) 16:02:49 437.345
MOZHAYETS 4 19 Jan 15:55:30 15:59:52 42° 288° (WNW) 16:04:11
ITAMSAT 1 19 Jan 15:56:48 16:01:27 34° 262° (W) 16:06:07 435.822/435.867
M-CUBED/EXP-1 PRIME 19 Jan 16:08:14 16:12:39 65° 254° (WSW) 16:16:48 437.505
SRMSAT 19 Jan 16:17:48 16:19:57 12° 184° (S) 16:22:06 437.500
HO-68 19 Jan 16:17:53 16:20:34 12° 53° (NE) 16:23:15 435.675
XW-2D 19 Jan 16:20:09 16:21:52 13° 66° (ENE) 16:23:33 145.860 - 145.880
AO-7 19 Jan 16:23:33 16:29:40 22° 266° (W) 16:35:50 .
XW-2B 19 Jan 16:36:32 16:39:16 19° 69° (ENE) 16:42:00 145.730 - 145.750
DOVE 4 19 Jan 16:40:23 16:44:32 43° 261° (W) 16:48:33 437.250
ITUPSAT 1 19 Jan 16:46:49 16:50:45 26° 293° (WNW) 16:54:41 437.325
LilacSat-2 19 Jan 17:01:25 17:05:04 42° 74° (ENE) 17:08:45 437.200
XW-2C 19 Jan 17:05:41 17:09:20 44° 74° (ENE) 17:13:00 145.795 - 145.815
CUTE 1.7 + AOD 2 19 Jan 17:05:43 17:07:38 13° 65° (ENE) 17:09:32 437.475
CUTE-I 19 Jan 17:17:54 17:23:03 54° 72° (ENE) 17:28:14 437.470
NO-84 19 Jan 17:27:33 17:30:39 76° 316° (NW) 17:33:36 435.350 FM
CUBESAT XI-V 19 Jan 17:32:25 17:35:27 18° 294° (WNW) 17:38:27 437.345
KKS-1 19 Jan 17:35:38 17:40:07 78° 104° (ESE) 17:44:33 437.445
PCSat 19 Jan 17:40:24 17:42:23 12° 41° (NE) 17:44:20 145.827
XW-2F 19 Jan 17:43:28 17:47:15 62° 259° (W) 17:51:02 145.980 - 146.000
KAITUO 1B 19 Jan 17:44:28 17:48:14 83° 257° (WSW) 17:52:01 145.475/437.950
BEESAT 3 19 Jan 17:50:49 17:53:11 15° 46° (NE) 17:55:31 437.485
XW-2D 19 Jan 17:51:58 17:55:37 42° 261° (W) 17:59:16 145.860 - 145.880
STARS 19 Jan 17:56:07 18:00:24 48° 100° (E) 18:04:41 437.465
NUDT-PHONESAT 19 Jan 17:58:26 18:02:06 56° 260° (W) 18:05:48 437.300
HO-68 19 Jan 17:59:55 18:07:00 69° 71° (ENE) 18:14:06 435.675
RS-15 19 Jan 18:02:31 18:14:10 79° 243° (WSW) 18:25:12 29.354- 29.394
XW-2B 19 Jan 18:09:57 18:13:14 27° 264° (W) 18:16:31 145.730 - 145.750
STRAND 1 19 Jan 18:16:38 18:17:49 11° 90° (E) 18:19:01 437.568
AAUSAT CUBESAT 2 19 Jan 18:16:55 18:19:52 19° 68° (ENE) 18:22:49 437.432
SEEDS 19 Jan 18:29:11 18:33:23 67° 75° (ENE) 18:37:34 437.485
CUBEBUG 2 19 Jan 18:35:01 18:39:20 82° 77° (ENE) 18:43:50 437.445
BEESAT 2 19 Jan 18:35:21 18:37:15 13° 44° (NE) 18:39:08 435.950
LilacSat-2 19 Jan 18:38:02 18:39:31 12° 268° (W) 18:41:00 437.200
CUTE 1.7 + AOD 2 19 Jan 18:38:47 18:42:58 53° 261° (W) 18:47:09 437.475
XW-2C 19 Jan 18:42:28 18:43:43 11° 269° (W) 18:44:57 145.795 - 145.815
XW-2A 19 Jan 18:42:56 18:45:53 27° 72° (ENE) 18:48:51 145.665 - 145.685
UWE-3 19 Jan 18:43:34 18:47:50 55° 74° (ENE) 18:52:16 435.000/436.395/437.385
FO-29 19 Jan 18:58:28 18:59:42 11° 90° (E) 19:00:56 435.910
CUTE-I 19 Jan 18:59:59 19:03:23 17° 267° (W) 19:06:50 437.470
ZACube-1 19 Jan 19:10:35 19:14:53 57° 74° (ENE) 19:19:20 437.345
AO-73 19 Jan 19:18:15 19:22:35 60° 75° (ENE) 19:27:03 145.935
PCSat 19 Jan 19:21:20 19:26:46 71° 61° (ENE) 19:32:09 145.827
BEESAT 3 19 Jan 19:27:11 19:30:57 48° 244° (WSW) 19:34:39 437.485
STARS 19 Jan 19:33:48 19:36:18 15° 295° (WNW) 19:38:48 437.465
HO-68 19 Jan 19:50:13 19:55:14 20° 267° (W) 20:00:18 435.675
AAUSAT CUBESAT 2 19 Jan 19:51:24 19:55:04 31° 263° (W) 19:58:46 437.432
STRAND 1 19 Jan 19:52:22 19:57:32 79° 285° (WNW) 20:02:40 437.568
Oscar 11 19 Jan 19:53:14 19:57:35 87° 253° (WSW) 20:01:58 .
Max Valier Satellite 19 Jan 20:06:06 20:07:46 13° 67° (ENE) 20:09:25 145.860
BEESAT 2 19 Jan 20:11:25 20:15:23 65° 243° (WSW) 20:19:17 435.950
nSIGHT-1 19 Jan 20:13:19 20:16:09 31° 134° (SE) 20:19:00 .
XW-2A 19 Jan 20:16:45 20:18:35 14° 267° (W) 20:20:26 145.665 - 145.685
RS-15 19 Jan 20:18:26 20:24:25 16° 263° (W) 20:30:19 29.354- 29.394
ISS 19 Jan 20:20:51 20:23:34 25° 132° (SE) 20:26:19 437.550
UWE-3 19 Jan 20:22:53 20:24:39 12° 270° (W) 20:26:26 435.000/436.395/437.385
EO-88 19 Jan 20:27:48 20:29:54 15° 68° (ENE) 20:32:00 145.990 - 145.960
FO-29 19 Jan 20:40:12 20:45:24 72° 286° (WNW) 20:50:38 435.910
DELFI C3 19 Jan 20:41:02 20:44:51 55° 75° (ENE) 20:48:41 145.870
ZACube-1 19 Jan 20:49:47 20:51:31 12° 270° (W) 20:53:16 437.345
AO-85 19 Jan 20:50:24 20:55:14 48° 55° (NE) 21:00:19 145.980
AO-73 19 Jan 20:57:49 20:59:12 11° 270° (W) 21:00:36 145.935
TIGRISAT 19 Jan 21:01:37 21:05:06 20° 94° (E) 21:08:34 435.000
PCSat 19 Jan 21:06:44 21:09:29 14° 257° (WSW) 21:12:13 145.827
UNISAT 6 19 Jan 21:15:58 21:20:10 32° 96° (E) 21:24:20 437.425
Max Valier Satellite 19 Jan 21:37:39 21:41:10 40° 262° (W) 21:44:43 145.860
YUBILEINY 19 Jan 21:43:41 21:49:36 20° 79° (E) 21:55:28 435.215
nSIGHT-1 19 Jan 21:49:36 21:52:18 26° 330° (NNW) 21:55:03 .
LO-87 19 Jan 21:50:58 21:53:26 18° 69° (ENE) 21:55:55 145.935 - 145.965
PRISM 19 Jan 21:54:15 21:56:34 15° 93° (E) 21:58:53 437.425
ESTCUBE 1 19 Jan 21:55:45 21:59:09 21° 67° (ENE) 22:02:34 437.505/2401.250
ISS 19 Jan 21:56:59 21:59:58 32° 329° (NNW) 22:02:56 437.550
EO-88 19 Jan 21:59:56 22:03:13 31° 263° (W) 22:06:32 145.990 - 145.960
AO-85 19 Jan 22:31:33 22:35:24 22° 249° (WSW) 22:39:21 145.980
TIGRISAT 19 Jan 22:37:31 22:41:52 38° 288° (WNW) 22:46:09 435.000
UNISAT 6 19 Jan 22:52:53 22:56:40 25° 292° (WNW) 23:00:27 437.425
EO-79 19 Jan 22:58:01 22:59:02 11° 91° (E) 23:00:03 145.935-145.965
AIST 2D 19 Jan 23:05:08 23:08:31 48° 99° (E) 23:11:51 435.315
LO-87 19 Jan 23:23:44 23:26:38 23° 264° (W) 23:29:34 145.935 - 145.965
PRISM 19 Jan 23:28:11 23:31:58 38° 288° (WNW) 23:35:46 437.425
POLYITAN 1 19 Jan 23:30:21 23:34:00 26° 96° (E) 23:37:37 437.675
ESTCUBE 1 19 Jan 23:31:36 23:35:43 34° 263° (W) 23:39:51 437.505/2401.250
YUBILEINY 19 Jan 23:36:29 23:45:20 78° 278° (W) 23:54:10 435.215
VELOX 1 19 Jan 23:36:45 23:40:40 33° 70° (ENE) 23:44:35 145.980
ISS 19 Jan 23:36:47 23:37:14 10° 348° (NNW) 23:37:42 437.550
SPROUT 19 Jan 23:43:07 23:47:20 72° 76° (ENE) 23:51:35 437.525
NANOSAT C BR1 19 Jan 23:46:58 23:50:54 36° 98° (E) 23:54:50 145.865
O/OREOS (USA 219) 19 Jan 23:57:30 00:01:20 28° 103° (ESE) 00:05:10 437.305
QB50P2 19 Jan 23:59:28 00:03:44 67° 102° (ESE) 00:07:59 145.880/145.840
DX 1 19 Jan 23:59:49 00:01:04 11° 63° (ENE) 00:02:19 434.975-435.025
NO-84 20 Jan 00:01:10 00:03:38 25° 38° (NE) 00:06:12 435.350 FM
EO-79 20 Jan 00:30:54 00:35:07 58° 285° (WNW) 00:39:18 145.935-145.965
DUCHIFAT 1 20 Jan 00:31:11 00:35:28 79° 282° (WNW) 00:39:41 145.980
AO-91 20 Jan 00:46:52 00:50:31 24° 96° (E) 00:54:26 145.960
Gurwin Techsat 1B 20 Jan 01:04:30 01:08:43 24° 95° (E) 01:12:55 435.225
POLYITAN 1 20 Jan 01:06:10 01:09:38 24° 291° (WNW) 01:13:05 437.675
VELOX 1 20 Jan 01:13:52 01:17:07 20° 265° (W) 01:20:24 145.980
MOZHAYETS 4 20 Jan 01:20:28 01:23:06 15° 64° (ENE) 01:25:45
50 SAT 20 Jan 01:22:44 01:25:47 83° 257° (WSW) 01:28:53 437.505
UKube-1 20 Jan 01:23:07 01:27:19 56° 74° (ENE) 01:31:32 .
NANOSAT C BR1 20 Jan 01:23:24 01:26:19 18° 293° (WNW) 01:29:14 145.865
Oscar 19 20 Jan 01:27:31 01:32:35 53° 100° (E) 01:37:35 437.125/150
DX 1 20 Jan 01:32:22 01:36:40 65° 258° (WSW) 01:40:59 434.975-435.025
O/OREOS (USA 219) 20 Jan 01:36:55 01:40:41 26° 299° (WNW) 01:44:27 437.305
BUGSAT 1 20 Jan 01:37:16 01:41:29 63° 285° (WNW) 01:45:40 437.445
QB50P2 20 Jan 01:38:02 01:38:54 11° 297° (WNW) 01:39:47 145.880/145.840
NO-84 20 Jan 01:38:26 01:40:41 20° 232° (SW) 01:43:01 435.350 FM
YUBILEINY 20 Jan 01:39:12 01:43:38 15° 299° (WNW) 01:48:07 435.215
ITUPSAT 1 20 Jan 02:14:02 02:18:15 32° 69° (ENE) 02:22:29 437.325
AO-91 20 Jan 02:22:56 02:26:54 32° 288° (WNW) 02:31:13 145.960
AO-7 20 Jan 02:32:18 02:38:58 26° 95° (E) 02:45:32 .
nSIGHT-1 20 Jan 02:41:04 02:43:50 26° 30° (NNE) 02:46:35 .
Gurwin Techsat 1B 20 Jan 02:43:49 02:48:45 40° 290° (WNW) 02:53:41 435.225
ISS 20 Jan 02:49:41 02:52:25 24° 28° (NNE) 02:55:09 437.550
BEESAT 20 Jan 02:53:51 02:58:36 85° 72° (ENE) 03:03:24 436.000
MOZHAYETS 4 20 Jan 02:55:16 02:59:47 53° 260° (W) 03:04:20
CUBESAT XI-V 20 Jan 02:55:36 02:59:54 37° 71° (ENE) 03:04:11 437.345
UKube-1 20 Jan 03:02:20 03:03:38 11° 268° (W) 03:04:56 .
Oscar 19 20 Jan 03:07:59 03:11:27 18° 296° (WNW) 03:14:53 437.125/150
FALCONSAT 3 20 Jan 03:43:59 03:46:27 17° 155° (SSE) 03:48:54 435.103
ITUPSAT 1 20 Jan 03:52:09 03:56:02 25° 264° (W) 03:59:57 437.325
